Weather History for Phuket, Thailand

Change the Weather History Date:

Friday, June 14, 2013

  Actual Average Record
Temperature  
Mean Temperature 80 °F -  
Max Temperature 86 °F 88 °F 96 °F (1997)
Min Temperature 75 °F 77 °F 73 °F (1999)
Cooling Degree Days 16    
Growing Degree Days 30 (Base 50)    
Moisture  
Dew Point 75 °F    
Average Humidity 83    
Maximum Humidity 94    
Minimum Humidity 71    
Precipitation  
Precipitation 2.72 in 0.37 in - ()
Sea Level Pressure  
Sea Level Pressure 29.70 in    
Wind  
Wind Speed 8 mph ()    
Max Wind Speed 17 mph    
Max Gust Speed 34 mph    
Visibility 4.0 miles    
Events Rain    
Averages and records for this station are not official NWS values.
T = Trace of Precipitation, MM = Missing Value Source: Averaged Metar Reports

Daily Weather History Graph

Daily Weather History Graph

Search for Another Location

Airport:

Trip Planner

Search our weather history database for the weather conditions in past years. The results will help you decide how hot, cold, wet, or windy it might be!

Date:

Astronomy

Jun. 14, 2013 Rise Set
Actual Time 6:09 AM ICT 6:44 PM ICT
Civil Twilight 5:46 AM ICT 7:07 PM ICT
Nautical Twilight 5:19 AM ICT 7:34 PM ICT
Astronomical Twilight 4:52 AM ICT 8:01 PM ICT
Moon 10:27 AM ICT (6/14) 10:58 PM ICT (6/14)
Length of Visible Light 13h 21m
Length of Day
12h 35m
Waxing Crescent, 26% of the Moon is Illuminated
Jun 14
Waxing Crescent
Jun 17
First Quarter
Jun 23
Full
Jun 30
Last Quarter
Jul 8
New

Hourly Weather History & Observations

Time (ICT) Temp. Heat Index Dew Point Humidity Pressure Visibility Wind Dir Wind Speed Gust Speed Precip Events Conditions
12:00 AM 82.4 °F 89.5 °F 75.2 °F 79% 29.71 in 5.0 mi WSW 9.2 mph - N/A   Mostly Cloudy
12:30 AM 82.4 °F 89.5 °F 75.2 °F 79% 29.71 in 5.0 mi WSW 9.2 mph - N/A   Mostly Cloudy
1:00 AM 83 °F - 76 °F 75% 29.67 in 6 mi WNW 5.8 mph - -   Scattered Clouds
1:00 AM 82.4 °F 89.5 °F 75.2 °F 79% 29.68 in 5.0 mi WSW 8.1 mph - N/A   Mostly Cloudy
1:30 AM 82.4 °F 89.5 °F 75.2 °F 79% 29.71 in 5.0 mi WSW 15.0 mph - N/A   Mostly Cloudy
2:30 AM 82.4 °F 89.5 °F 75.2 °F 79% 29.68 in 5.0 mi WSW 9.2 mph - N/A   Mostly Cloudy
3:30 AM 82.4 °F 89.5 °F 75.2 °F 79% 29.68 in 5.0 mi WSW 13.8 mph - N/A   Mostly Cloudy
4:30 AM 82.4 °F 89.5 °F 75.2 °F 79% 29.68 in 5.0 mi WSW 11.5 mph - N/A   Mostly Cloudy
5:00 AM 82.4 °F 89.5 °F 75.2 °F 79% 29.68 in 5.0 mi WSW 13.8 mph - N/A   Mostly Cloudy
5:30 AM 82.4 °F 89.5 °F 75.2 °F 79% 29.68 in 5.0 mi West 15.0 mph - N/A   Mostly Cloudy
6:00 AM 82.4 °F 89.5 °F 75.2 °F 79% 29.68 in 5.0 mi West 13.8 mph - N/A   Mostly Cloudy
6:30 AM 82.4 °F 89.5 °F 75.2 °F 79% 29.68 in 5.0 mi WSW 11.5 mph - N/A   Mostly Cloudy
7:00 AM 83 °F - 77 °F 77% 29.67 in 4 mi WNW 9.2 mph - - Rain Light Rain
7:00 AM 78.8 °F - 75.2 °F 89% 29.68 in 3.7 mi WSW 15.0 mph - N/A Rain Rain
7:30 AM 78.8 °F - 75.2 °F 89% 29.71 in 3.7 mi WSW 11.5 mph - N/A Rain Rain
8:00 AM 80.6 °F 86.2 °F 75.2 °F 84% 29.71 in 4.3 mi WSW 8.1 mph - N/A   Mostly Cloudy
8:30 AM 80.6 °F 87.1 °F 77.0 °F 89% 29.71 in 4.3 mi Variable 3.5 mph - N/A Rain Light Rain
9:00 AM 82.4 °F 89.5 °F 75.2 °F 79% 29.74 in 4.3 mi SW 5.8 mph 17.3 mph N/A Rain Light Rain
9:30 AM 82.4 °F 89.5 °F 75.2 °F 79% 29.74 in 5.0 mi Variable 6.9 mph - N/A   Mostly Cloudy
10:00 AM 82.4 °F 88.2 °F 73.4 °F 74% 29.74 in 5.0 mi WSW 6.9 mph - N/A   Mostly Cloudy
10:30 AM 84.2 °F 92.3 °F 75.2 °F 74% 29.74 in 4.3 mi Variable 6.9 mph - N/A   Mostly Cloudy
11:00 AM 84.2 °F 92.3 °F 75.2 °F 74% 29.74 in 4.3 mi Variable 8.1 mph - N/A   Mostly Cloudy
11:30 AM 84.2 °F 92.3 °F 75.2 °F 74% 29.71 in 4.3 mi WSW 12.7 mph - N/A   Mostly Cloudy
12:00 PM 86.0 °F 96.9 °F 77.0 °F 74% 29.71 in 5.0 mi West 17.3 mph - N/A   Mostly Cloudy
12:30 PM 84.2 °F 92.3 °F 75.2 °F 74% 29.71 in 4.3 mi West 17.3 mph - N/A   Mostly Cloudy
1:00 PM 85 °F - 77 °F 71% 29.66 in 4 mi West 11.5 mph - -   Overcast
1:00 PM 84.2 °F 92.3 °F 75.2 °F 74% 29.68 in 4.3 mi WSW 12.7 mph - N/A   Mostly Cloudy
1:30 PM 78.8 °F - 75.2 °F 89% 29.68 in 0.6 mi Variable 9.2 mph 20.7 mph N/A Rain Heavy Rain
2:00 PM 78.8 °F - 75.2 °F 89% 29.68 in 3.7 mi SW 9.2 mph 21.9 mph N/A Rain Light Rain
2:30 PM 78.8 °F - 73.4 °F 83% 29.68 in 3.7 mi SSW 4.6 mph - N/A Rain Light Rain
3:00 PM 80.6 °F 86.2 °F 75.2 °F 84% 29.68 in 3.1 mi Variable 3.5 mph - N/A Rain Rain
3:30 PM 77.0 °F - 73.4 °F 89% 29.65 in 1.9 mi Variable 4.6 mph 16.1 mph N/A Rain Rain
4:00 PM 77.0 °F - 75.2 °F 94% 29.65 in 1.9 mi West 9.2 mph - N/A Rain Rain
4:30 PM 78.8 °F - 75.2 °F 89% 29.65 in 4.3 mi Variable 6.9 mph - N/A Rain Light Rain
5:00 PM 77.0 °F - 73.4 °F 89% 29.65 in 3.1 mi SW 8.1 mph 34.5 mph N/A Rain Rain
5:30 PM 78.8 °F - 75.2 °F 89% 29.68 in 3.1 mi Variable 2.3 mph - N/A Rain Rain
6:00 PM 80.6 °F 85.4 °F 73.4 °F 79% 29.68 in 1.9 mi West 11.5 mph 28.8 mph N/A Rain Rain
6:30 PM 77.0 °F - 75.2 °F 94% 29.71 in 0.3 mi West 10.4 mph 21.9 mph N/A Rain Heavy Rain
7:00 PM 78 °F - 77 °F 94% 29.66 in 4 mi West 8.1 mph - - Rain Rain
7:00 PM 77.0 °F - 73.4 °F 89% 29.71 in 1.2 mi Variable 8.1 mph 20.7 mph N/A Rain Rain
7:30 PM 77.0 °F - 75.2 °F 94% 29.71 in 5.0 mi Variable 5.8 mph - N/A   Mostly Cloudy
8:00 PM 77.0 °F - 73.4 °F 89% 29.71 in 5.0 mi NW 6.9 mph - N/A   Mostly Cloudy
8:30 PM 78.8 °F - 75.2 °F 89% 29.74 in 1.9 mi WNW 13.8 mph - N/A Rain Rain
9:00 PM 78.8 °F - 73.4 °F 83% 29.74 in 3.1 mi NNW 8.1 mph - N/A Rain Rain
9:30 PM 78.8 °F - 73.4 °F 83% 29.74 in 4.3 mi Calm Calm - N/A   Mostly Cloudy
10:00 PM 77.0 °F - 73.4 °F 89% 29.74 in 4.3 mi Calm Calm - N/A   Mostly Cloudy
10:30 PM 77.0 °F - 73.4 °F 89% 29.74 in 4.3 mi Calm Calm - N/A   Mostly Cloudy
11:00 PM 77.0 °F - 73.4 °F 89% 29.74 in 3.1 mi Calm Calm - N/A Rain Light Rain
11:30 PM 77.0 °F - 73.4 °F 89% 29.74 in 4.3 mi Calm Calm - N/A   Mostly Cloudy